Location: Unspecified
(0.0000°N, 0.0000°E)
Time: 22:33:23
(UTC+02:00)

Amateur Radio Satellites - All Passes

Search period start: 30 April 2017 22:03
Search period end: 01 May 2017 22:03
Location: Unspecified, 0.0000°N, 0.0000°E

Satellite Date Start Highest point End Downlink Frequencies (MHz)
Time Altitude Azimuth
SEEDS 30 Apr 22:03:26 22:06:50 25° 258° (WSW) 22:10:15 437.485
CUBEBUG 2 30 Apr 22:05:24 22:09:37 38° 258° (WSW) 22:13:41 437.445
STRAND 1 30 Apr 22:23:07 22:24:18 11° 283° (WNW) 22:25:29 437.568
ZACube-1 30 Apr 22:28:34 22:32:53 70° 258° (WSW) 22:37:04 437.345
AO-73 30 Apr 22:32:50 22:37:07 69° 258° (WSW) 22:41:16 145.935
OBJECT BX 30 Apr 22:41:14 22:42:48 12° 79° (ENE) 22:44:21 145.990 - 145.960
Oscar 11 30 Apr 22:42:55 22:47:11 64° 258° (WSW) 22:51:25 .
FO-29 30 Apr 22:57:36 23:01:54 20° 106° (ESE) 23:06:32 435.910
DELFI C3 30 Apr 23:02:26 23:06:13 44° 79° (E) 23:10:00 145.870
AO-85 30 Apr 23:18:01 23:22:19 64° 69° (ENE) 23:26:59 145.980
TIGRISAT 30 Apr 23:22:39 23:26:47 39° 102° (ESE) 23:31:02 435.000
SRMSAT 30 Apr 23:23:44 23:27:03 15° 12° (NNE) 23:30:22 437.500
PRISM 30 Apr 23:27:53 23:31:57 82° 280° (W) 23:36:01 437.425
JUGNU 30 Apr 23:40:28 23:46:21 60° 21° (NNE) 23:52:16 437.505
UNISAT 6 30 Apr 23:44:55 23:49:20 87° 276° (W) 23:53:54 437.425
OBJECT BX 01 May 00:13:49 00:16:13 17° 258° (WSW) 00:18:36 145.990 - 145.960
BEESAT 3 01 May 00:28:18 00:32:12 69° 68° (ENE) 00:36:03 437.485
BEESAT 2 01 May 00:37:57 00:41:11 23° 68° (ENE) 00:44:22 435.950
FO-29 01 May 00:41:19 00:46:32 34° 281° (W) 00:52:25 435.910
POLYITAN 1 01 May 00:41:25 00:44:16 18° 102° (ESE) 00:47:08 437.675
ESTCUBE 1 01 May 00:46:57 00:51:12 42° 78° (ENE) 00:55:25 437.505/2401.250
QB50P2 01 May 00:47:41 00:51:07 24° 102° (ESE) 00:54:34 145.880/145.840
LO-87 01 May 01:01:47 01:05:13 39° 259° (W) 01:08:37 145.935 - 145.965
NANOSAT C BR1 01 May 01:04:40 01:08:29 34° 102° (ESE) 01:12:19 145.865
SPROUT 01 May 01:11:13 01:13:42 15° 78° (ENE) 01:16:09 437.525
SRMSAT 01 May 01:11:29 01:16:47 32° 19° (NNE) 01:22:05 437.500
AIST 2D 01 May 01:20:20 01:23:38 38° 281° (W) 01:26:58 435.315
JUGNU 01 May 01:29:37 01:35:26 50° 201° (SSW) 01:41:14 437.505
PCSat 01 May 01:29:40 01:35:05 89° 108° (ESE) 01:40:29 145.827
DUCHIFAT 1 01 May 01:31:35 01:35:45 78° 100° (E) 01:39:59 145.980
EO-79 01 May 01:35:00 01:39:10 71° 282° (WNW) 01:43:23 145.935-145.965
UKube-1 01 May 02:12:34 02:15:51 21° 78° (ENE) 02:19:08 .
BUGSAT 1 01 May 02:15:14 02:19:14 76° 101° (E) 02:23:19 437.445
VELOX 1 01 May 02:16:45 02:21:06 53° 258° (WSW) 02:25:26 145.980
POLYITAN 1 01 May 02:16:55 02:19:46 18° 282° (WNW) 02:22:38 437.675
BEESAT 2 01 May 02:17:15 02:18:40 12° 248° (WSW) 02:20:05 435.950
QB50P2 01 May 02:24:47 02:26:39 13° 282° (WNW) 02:28:31 145.880/145.840
50 SAT 01 May 02:39:17 02:42:30 37° 259° (WSW) 02:45:44 437.505
SPROUT 01 May 02:46:03 02:49:19 21° 258° (WSW) 02:52:35 437.525
DX 1 01 May 02:53:45 02:58:03 56° 258° (WSW) 03:02:20 434.975-435.025
Oscar 19 01 May 02:57:36 03:02:42 63° 103° (ESE) 03:07:48 437.125/150
SRMSAT 01 May 03:00:05 03:06:05 86° 21° (NNE) 03:12:04 437.500
JUGNU 01 May 03:20:21 03:24:46 21° 196° (SSW) 03:29:11 437.505
Gurwin Techsat 1B 01 May 03:35:24 03:40:42 90° 101° (E) 03:46:02 435.225
UKube-1 01 May 03:49:02 03:51:36 16° 257° (WSW) 03:54:11 .
ITUPSAT 1 01 May 03:56:20 04:00:05 23° 77° (ENE) 04:03:48 437.325
MOZHAYETS 4 01 May 04:05:26 04:06:33 11° 78° (ENE) 04:07:40
SO-50 01 May 04:13:45 04:16:06 14° 113° (ESE) 04:18:26 436.795
AO-7 01 May 04:18:08 04:25:09 31° 107° (ESE) 04:32:11 .
ITAMSAT 1 01 May 04:33:39 04:38:27 39° 103° (ESE) 04:43:16 435.822/435.867
YUBILEINY 01 May 04:43:06 04:51:36 57° 93° (E) 05:00:01 435.215
Tancredo 1 01 May 04:43:16 04:45:47 22° 126° (SE) 04:48:17 437.200
BEESAT 01 May 04:49:10 04:53:53 65° 258° (WSW) 04:58:35 436.000
SRMSAT 01 May 04:49:57 04:55:21 35° 199° (SSW) 05:00:44 437.500
JUGNU 01 May 05:12:52 05:14:39 11° 187° (S) 05:16:26 437.505
NO-84 01 May 05:15:30 05:18:21 61° 238° (WSW) 05:21:23 435.350 FM
KKS-1 01 May 05:19:56 05:21:45 12° 78° (ENE) 05:23:33 437.445
ITUPSAT 1 01 May 05:34:27 05:37:38 18° 257° (WSW) 05:40:47 437.325
MOZHAYETS 4 01 May 05:39:21 05:43:26 33° 258° (WSW) 05:47:30
ISS 01 May 05:40:12 05:43:27 61° 305° (NW) 05:46:40 437.550
RS-15 01 May 05:48:58 05:59:21 40° 110° (ESE) 06:10:08 29.354- 29.394
SO-50 01 May 05:52:14 05:56:21 30° 292° (WNW) 06:00:24 436.795
AO-7 01 May 06:10:09 06:17:32 36° 286° (WNW) 06:25:00 .
ITAMSAT 1 01 May 06:15:31 06:17:37 12° 283° (WNW) 06:19:45 435.822/435.867
SRMSAT 01 May 06:41:32 06:45:01 16° 193° (SSW) 06:48:30 437.500
CUBESAT XI-V 01 May 06:42:33 06:46:57 45° 258° (WSW) 06:51:22 437.345
YUBILEINY 01 May 06:42:57 06:47:59 17° 273° (W) 06:53:00 435.215
KKS-1 01 May 06:54:09 06:58:01 29° 258° (WSW) 07:01:53 437.445
JUGNU 01 May 07:04:18 07:04:53 10° 176° (S) 07:05:29 437.505
XW-2D 01 May 07:11:19 07:14:17 21° 102° (ESE) 07:17:15 145.860 - 145.880
STARS 01 May 07:12:06 07:16:22 47° 258° (WSW) 07:20:35 437.465
KAITUO 1B 01 May 07:16:47 07:19:27 18° 102° (ESE) 07:22:06 145.475/437.950
DOVE 4 01 May 07:17:53 07:21:56 50° 101° (ESE) 07:25:57 437.250
XW-2B 01 May 07:18:07 07:21:21 26° 102° (ESE) 07:24:34 145.730 - 145.750
XW-2C 01 May 07:29:50 07:33:28 41° 101° (ESE) 07:37:07 145.795 - 145.815
LilacSat-2 01 May 07:34:10 07:37:56 52° 102° (ESE) 07:41:43 437.200
NUDT-PHONESAT 01 May 07:48:23 07:52:05 60° 101° (E) 07:55:48 437.300
XW-2F 01 May 07:51:29 07:55:19 88° 273° (W) 07:59:10 145.980 - 146.000
CUTE-I 01 May 07:54:17 07:59:34 76° 103° (ESE) 08:04:54 437.470
RS-15 01 May 08:01:02 08:11:19 38° 292° (WNW) 08:22:08 29.354- 29.394
HO-68 01 May 08:03:25 08:08:18 20° 105° (ESE) 08:13:10 435.675
M-CUBED/EXP-1 PRIME 01 May 08:15:43 08:17:54 14° 73° (ENE) 08:20:09 437.505
XW-2A 01 May 08:18:12 08:19:37 12° 102° (ESE) 08:21:03 145.665 - 145.685
CUTE 1.7 + AOD 2 01 May 08:22:52 08:25:48 18° 102° (ESE) 08:28:45 437.475
SEEDS 01 May 08:34:10 08:36:32 15° 102° (ESE) 08:38:53 437.485
CUBEBUG 2 01 May 08:42:55 08:45:04 13° 103° (ESE) 08:47:13 437.445
XW-2D 01 May 08:46:55 08:48:12 11° 281° (WNW) 08:49:29 145.860 - 145.880
JUGNU 01 May 08:51:12 08:54:54 17° 167° (SSE) 08:58:35 437.505
KAITUO 1B 01 May 08:51:22 08:53:10 13° 281° (WNW) 08:55:00 145.475/437.950
STRAND 1 01 May 09:12:59 09:18:06 74° 258° (WSW) 09:23:11 437.568
AAUSAT CUBESAT 2 01 May 09:26:03 09:29:46 32° 101° (E) 09:33:29 437.432
M-CUBED/EXP-1 PRIME 01 May 09:48:10 09:51:59 30° 255° (WSW) 09:55:58 437.505
HO-68 01 May 09:48:55 09:55:40 45° 284° (WNW) 10:02:27 435.675
XW-2A 01 May 09:50:12 09:52:06 14° 281° (W) 09:54:02 145.665 - 145.685
UWE-3 01 May 09:53:30 09:57:52 75° 101° (E) 10:02:24 435.000/436.395/437.385
CUTE 1.7 + AOD 2 01 May 09:58:29 10:01:22 18° 282° (WNW) 10:04:15 437.475
O/OREOS (USA 219) 01 May 10:08:03 10:12:27 49° 284° (WNW) 10:16:51 437.305
SEEDS 01 May 10:08:43 10:11:57 21° 282° (WNW) 10:15:10 437.485
CUBEBUG 2 01 May 10:17:45 10:21:22 26° 281° (W) 10:25:05 437.445
SRMSAT 01 May 10:23:39 10:25:36 12° 172° (S) 10:27:32 437.500
FO-29 01 May 10:34:49 10:36:19 11° 80° (E) 10:37:46 435.910
ZACube-1 01 May 10:37:55 10:42:12 51° 281° (W) 10:46:34 437.345
JUGNU 01 May 10:38:55 10:44:21 38° 160° (SSE) 10:49:45 437.505
AO-73 01 May 10:41:49 10:46:05 51° 281° (W) 10:50:28 145.935
Oscar 11 01 May 10:51:35 10:55:45 47° 282° (WNW) 10:59:57 .
DELFI C3 01 May 11:00:42 11:04:26 41° 101° (ESE) 11:08:10 145.870
PRISM 01 May 11:30:21 11:34:28 75° 259° (WSW) 11:38:36 437.425
AO-85 01 May 11:31:13 11:36:02 65° 291° (WNW) 11:40:27 145.980
TIGRISAT 01 May 11:35:44 11:40:12 62° 78° (ENE) 11:44:31 435.000
UNISAT 6 01 May 11:58:30 12:02:56 55° 258° (WSW) 12:07:13 437.425
OBJECT BX 01 May 12:02:55 12:05:57 25° 281° (W) 12:09:00 145.990 - 145.960
SRMSAT 01 May 12:11:03 12:15:34 22° 163° (SSE) 12:20:04 437.500
FO-29 01 May 12:14:18 12:21:21 64° 256° (WSW) 12:27:34 435.910
BEESAT 3 01 May 12:19:56 12:23:44 68° 112° (ESE) 12:27:35 437.485
PCSat 01 May 12:24:26 12:28:05 18° 70° (ENE) 12:31:43 145.827
JUGNU 01 May 12:27:33 12:33:25 78° 338° (NNW) 12:39:16 437.505
BEESAT 2 01 May 12:30:55 12:34:03 24° 112° (ESE) 12:37:12 435.950
POLYITAN 1 01 May 12:47:18 12:50:33 22° 78° (ENE) 12:53:47 437.675
LO-87 01 May 12:49:35 12:53:04 65° 281° (W) 12:56:34 145.935 - 145.965
QB50P2 01 May 12:53:43 12:57:27 30° 79° (ENE) 13:01:09 145.880/145.840
ESTCUBE 1 01 May 13:00:42 13:05:11 68° 102° (ESE) 13:09:40 437.505/2401.250
AIST 2D 01 May 13:06:17 13:09:45 69° 258° (WSW) 13:13:11 435.315
NANOSAT C BR1 01 May 13:10:14 13:14:13 41° 78° (ENE) 13:18:11 145.865
SPROUT 01 May 13:17:40 13:20:38 19° 102° (ESE) 13:23:38 437.525
DUCHIFAT 1 01 May 13:36:58 13:41:12 86° 258° (WSW) 13:45:23 145.980
EO-79 01 May 13:41:07 13:45:18 56° 258° (WSW) 13:49:26 145.935-145.965
SRMSAT 01 May 13:59:11 14:05:00 55° 159° (SSE) 14:10:48 437.500
PCSat 01 May 14:06:35 14:11:12 29° 251° (WSW) 14:15:49 145.827
BEESAT 2 01 May 14:10:33 14:11:33 11° 293° (WNW) 14:12:33 435.950
JUGNU 01 May 14:17:32 14:22:32 29° 341° (NNW) 14:27:33 437.505
BUGSAT 1 01 May 14:18:12 14:22:26 85° 75° (ENE) 14:26:35 437.445
UKube-1 01 May 14:20:31 14:24:09 27° 102° (ESE) 14:27:48 .
50 SAT 01 May 14:23:15 14:26:40 75° 281° (WNW) 14:30:05 437.505
POLYITAN 1 01 May 14:23:44 14:26:04 14° 258° (WSW) 14:28:22 437.675
VELOX 1 01 May 14:28:30 14:32:30 36° 282° (WNW) 14:36:32 145.980
QB50P2 01 May 14:32:32 14:32:57 10° 258° (WSW) 14:33:21 145.880/145.840
Gurwin Techsat 1B 01 May 14:36:17 14:39:35 17° 77° (ENE) 14:42:52 435.225
SPROUT 01 May 14:53:32 14:56:16 17° 282° (WNW) 14:59:02 437.525
DX 1 01 May 15:03:30 15:07:33 40° 282° (WNW) 15:11:36 434.975-435.025
YUBILEINY 01 May 15:26:46 15:28:34 11° 87° (E) 15:30:22 435.215
Oscar 19 01 May 15:31:24 15:36:22 49° 258° (WSW) 15:41:19 437.125/150
BEESAT 01 May 15:36:12 15:38:08 12° 103° (ESE) 15:40:03 436.000
SRMSAT 01 May 15:48:24 15:54:12 53° 339° (NNW) 16:00:01 437.500
UKube-1 01 May 15:58:23 15:59:54 12° 282° (WNW) 16:01:25 .
JUGNU 01 May 16:09:18 16:12:07 14° 349° (N) 16:14:57 437.505
Tancredo 1 01 May 16:14:01 16:15:16 12° 54° (NE) 16:16:32 437.200
Gurwin Techsat 1B 01 May 16:14:36 16:19:15 31° 257° (WSW) 16:23:53 435.225
ITUPSAT 1 01 May 16:17:38 16:22:12 45° 103° (ESE) 16:26:47 437.325
MOZHAYETS 4 01 May 16:19:49 16:23:05 19° 102° (ESE) 16:26:22
SO-50 01 May 16:24:57 16:28:33 23° 68° (ENE) 16:32:12 436.795
AO-7 01 May 16:43:41 16:51:37 50° 74° (ENE) 16:59:30 .
NO-84 01 May 16:58:45 17:03:09 81° 301° (WNW) 17:07:19 435.350 FM
ITAMSAT 1 01 May 17:08:19 17:13:32 78° 257° (WSW) 17:18:43 435.822/435.867
BEESAT 01 May 17:11:20 17:15:36 33° 282° (WNW) 17:19:53 436.000
ISS 01 May 17:14:08 17:17:22 74° 55° (NE) 17:20:37 437.550
YUBILEINY 01 May 17:16:10 17:24:57 78° 267° (W) 17:33:48 435.215
CUBESAT XI-V 01 May 17:25:23 17:28:05 15° 102° (ESE) 17:30:45 437.345
KKS-1 01 May 17:31:05 17:34:03 18° 103° (ESE) 17:37:01 437.445
RS-15 01 May 17:32:28 17:42:31 33° 68° (ENE) 17:52:04 29.354- 29.394
SRMSAT 01 May 17:39:10 17:43:40 22° 344° (NNW) 17:48:10 437.500
Tancredo 1 01 May 17:48:49 17:50:56 17° 234° (SW) 17:53:05 437.200
MOZHAYETS 4 01 May 17:56:34 17:59:58 20° 282° (WNW) 18:03:24
SO-50 01 May 18:05:55 18:08:46 16° 247° (WSW) 18:11:39 436.795
AO-7 01 May 18:38:06 18:43:59 22° 253° (WSW) 18:49:53 .
CUTE-I 01 May 18:56:27 18:59:13 14° 77° (ENE) 19:01:59 437.470
CUBESAT XI-V 01 May 19:01:19 19:05:10 26° 282° (WNW) 19:09:01 437.345
XW-2D 01 May 19:05:35 19:07:59 16° 79° (E) 19:10:22 145.860 - 145.880
KKS-1 01 May 19:07:10 19:10:19 20° 282° (WNW) 19:13:30 437.445
KAITUO 1B 01 May 19:09:58 19:11:46 13° 79° (E) 19:13:34 145.475/437.950
XW-2B 01 May 19:12:16 19:15:04 20° 79° (E) 19:17:50 145.730 - 145.750
STARS 01 May 19:23:06 19:26:59 33° 282° (WNW) 19:30:54 437.465
XW-2C 01 May 19:23:53 19:27:14 31° 79° (ENE) 19:30:33 145.795 - 145.815
LilacSat-2 01 May 19:28:46 19:32:20 41° 79° (E) 19:35:52 437.200
SRMSAT 01 May 19:31:43 19:33:40 12° 353° (N) 19:35:37 437.500
DOVE 4 01 May 19:37:04 19:42:19 80° 258° (WSW) 19:47:37 437.250
NUDT-PHONESAT 01 May 19:40:11 19:43:41 41° 79° (E) 19:47:08 437.300
RS-15 01 May 19:43:49 19:54:28 43° 250° (WSW) 20:04:44 29.354- 29.394
XW-2F 01 May 19:44:55 19:48:38 70° 79° (ENE) 19:52:19 145.980 - 146.000
JUGNU 01 May 19:49:54 19:52:22 13° 10° (N) 19:54:51 437.505
HO-68 01 May 19:55:55 19:59:55 16° 75° (ENE) 20:03:55 435.675
STRAND 1 01 May 20:08:28 20:11:40 17° 103° (ESE) 20:14:52 437.568
CUTE 1.7 + AOD 2 01 May 20:28:50 20:32:04 22° 79° (ENE) 20:35:18 437.475
CUTE-I 01 May 20:34:05 20:38:59 37° 257° (WSW) 20:43:52 437.470
SEEDS 01 May 20:38:57 20:41:40 17° 78° (ENE) 20:44:22 437.485
XW-2D 01 May 20:39:58 20:41:54 14° 258° (WSW) 20:43:49 145.860 - 145.880
O/OREOS (USA 219) 01 May 20:42:39 20:44:20 12° 75° (ENE) 20:46:01 437.305
KAITUO 1B 01 May 20:43:09 20:45:31 16° 258° (WSW) 20:47:52 145.475/437.950
XW-2B 01 May 20:47:53 20:48:58 11° 258° (WSW) 20:50:05 145.730 - 145.750
CUBEBUG 2 01 May 20:54:29 20:57:47 20° 79° (E) 21:00:59 437.445
SRMSAT 01 May 21:23:32 21:24:03 10° 3° (N) 21:24:34 437.500
AAUSAT CUBESAT 2 01 May 21:29:22 21:33:09 36° 79° (ENE) 21:36:57 437.432
XW-2A 01 May 21:31:59 21:34:54 27° 258° (WSW) 21:37:48 145.665 - 145.685
JUGNU 01 May 21:37:12 21:42:04 26° 18° (NNE) 21:46:57 437.505
HO-68 01 May 21:40:23 21:47:18 53° 256° (WSW) 21:54:12 435.675
STRAND 1 01 May 21:46:10 21:50:33 29° 283° (WNW) 21:54:57 437.568
M-CUBED/EXP-1 PRIME 01 May 21:48:50 21:51:39 23° 286° (WNW) 21:54:20 437.505
